Weather Roundup
Issued by NWS Corpus Christi, TX

Home | Current Version | Previous Version | Text Only | Print | Product List | Glossary On
Versions: 1 2 3 4 5 6 7 8 9 10 11 12 13 14 15 16 17 18 19 20 21 22 23 24 25 26 27 28 29 30 31 32 33 34 35 36 37 38 39 40 41 42 43 44 45 46 47 48 49 50
000
ASUS44 KCRP 211910
HRRCRP

SOUTH TEXAS REGIONAL WEATHER ROUNDUP
NATIONAL WEATHER SERVICE CORPUS CHRISTI TX
100 PM CST SUN DEC 21 2014


TXZ229>244-212000-
...CORPUS CHRISTI AREA OBSERVATIONS...

CITY           SKY/WX    TMP DP  RH WIND       PRES   REMARKS
CORPUS CHRISTI CLOUDY    59  53  80 NE8       30.02F
NAS CORPUS CHR CLOUDY    60  55  83 NE13      30.01F
ROCKPORT       CLOUDY    59  51  75 NE7       30.02F
KINGSVILLE NAS CLOUDY    59  56  89 N8        30.02F
ALICE          CLOUDY    59  53  80 E6        30.02F
FALFURRIAS     CLOUDY    58  53  84 NE5       30.03F
$$

...VICTORIA AREA OBSERVATIONS...

CITY           SKY/WX    TMP DP  RH WIND       PRES   REMARKS
VICTORIA       PTSUNNY   62  52  69 CALM      30.03F
BEEVILLE       CLOUDY    59  53  82 CALM      30.03F
PLEASANTON     CLOUDY    54  52  95 S3        30.04F FOG
SAN ANTONIO    CLOUDY    55  50  83 S9        30.02F
$$

...LAREDO AREA OBSERVATIONS...

CITY           SKY/WX    TMP DP  RH WIND       PRES   REMARKS
LAREDO         NOT AVBL
COTULLA        CLOUDY    56  50  80 W5        30.04F
DEL RIO        CLOUDY    53  48  83 SE7       30.00F
MCALLEN        CLOUDY    60  56  86 N6        30.03F
HEBBRONVILLE   CLOUDY    59  53  79 E3        30.03F
$$

...OTHER TEXAS OBSERVATIONS...

CITY           SKY/WX    TMP DP  RH WIND       PRES   REMARKS
BROWNSVILLE    CLOUDY    65  59  81 N12       30.00F
HOUSTON        PTSUNNY   59  48  67 E5        30.02F
COL. STATION   CLOUDY    53  47  79 SW6       30.03F
AUSTIN         CLOUDY    55  47  74 S9        30.01F
WACO           CLOUDY    54  46  74 S15       29.98F
FORT WORTH     CLOUDY    50  44  80 SE13      29.95F
WICHITA FALLS  CLOUDY    49  44  83 S20G25    29.86F
LUBBOCK        MOSUNNY   63  26  24 W28G38    29.76F
EL PASO        PTSUNNY   54  28  36 SW20      30.01F
$$

...MARINE OBSERVATIONS...

STATION/POSITION TIME  SKY/WX   TEMP    WIND        PRES    VSBY  WAVE   SWELL
                                AIR SEA DIR/SP/G                  HT/PER HT/PER
                 (UTC)          (F)     (DEG/KT/KT) (MB)    (MI)  (FT/S) (FT/S)
PORT ARANSAS     1900            57 62   30/ 11/ 12 1016.4F
BUOY 90 E PORT A 1900            64 73   30/ 10/ 14 1016.3F         3/ 6   2/ 6
BUOY 45 SE BAFFI 1900            67 73   40/ 12/ 14 1015.1F         4/ 7   3/ 7
BUOY 200 E PT IS 1900            72 73  100/ 16/ 17 1013.3F         4/ 5   2/ 8
BUOY 15 E GALVES 1900            55 64   40/  6/ 10 1017.0F         2/ 6   2/ 6
$$


USA.gov is the U.S. government's official web portal to all federal, state and local government web resources and services.